Location: ????????
(48.4751°N, 37.6926°E)
Time: 02:27:48
(UTC+00:00)

Cosmos 1428 Rocket - Pass Details

Date: 20 January 2021
Orbit: 948 x 988 km, 82.9° (Epoch: 24 February)

Event Time Altitude Azimuth Distance (km) Brightness Sun altitude
Rises 16:42:44 0° 183° (S) 3,669 7.6 -25.0°
Reaches altitude 10° 16:45:13 10° 183° (S) 2,729 6.9 -25.4°
Maximum altitude 16:51:30 81° 97° (E) 1,004 4.4 -26.5°
Drops below altitude 10° 16:57:51 10° 11° (N) 2,760 6.8 -27.5°
Sets 17:00:23 0° 11° (N) 3,713 7.5 -27.9°
